Location: Adekhsal
(32.8986°N, 5.6108°W)
Time: 14:02:34
(UTC+00:00)

Daily predictions for brighter satellites

Satellite Brightness Start Highest point End
(mag) Time Altitude Azimuth Time Altitude Azimuth Time Altitude Azimuth
Meteor 2-13 Rocket 4.5 19:10:38 10° N 19:16:46 84° E 19:22:54 10° S
Cosmos 2333 Rocket 2.8 19:13:41 10° N 19:19:02 39° ENE 19:24:21 10° SE
Atlas Centaur 2 4.4 19:14:41 10° W 19:20:52 28° SSW 19:27:42 10° SSE
Cosmos 1184 Rocket 4.3 19:18:08 10° NNW 19:21:10 39° W 19:24:11 10° SSW
CSL-04 Rocket 4.0 19:16:41 10° SE 19:21:41 45° ENE 19:26:42 10° N
CENTAUR R/B 4.0 19:13:40 10° NW 19:22:00 57° WSW 19:30:39 10° S
SAR-Lupe-4 3.6 19:19:01 10° NNE 19:22:32 55° E 19:26:02 10° S
Cosmos 1689 Rocket 1.8 19:19:50 10° NNE 19:22:38 80° E 19:25:25 10° S
Cosmos 2251 Rocket 3.7 19:18:13 10° S 19:23:26 56° ESE 19:28:40 10° NNE
COSMOS 2487 4.1 19:20:18 10° SW 19:23:30 38° WNW 19:26:42 10° N
Cosmos 2228 3.8 19:19:25 10° SSW 19:23:42 59° W 19:27:57 10° N
Cosmos 1606 Rocket 3.9 19:20:15 10° SSW 19:24:34 71° W 19:28:55 10° N
HJ-1C 3.3 19:21:35 10° SSE 19:24:49 70° ENE 19:28:06 10° N
CZ-2C R/B 2.8 19:20:01 10° N 19:25:16 83° WNW 19:30:36 10° SSW
Cosmos 2322 4.0 19:20:31 10° N 19:25:58 47° ENE 19:31:23 10° SE
ERS-2 2.2 19:23:42 10° NNE 19:27:16 55° E 19:30:50 10° S
Cosmos 2034 Rocket 4.2 19:21:10 10° S 19:27:22 81° W 19:33:40 10° N
Nadezhda 4 Rocket 4.0 19:21:17 10° N 19:27:33 71° E 19:33:43 10° SSE
Cosmos 1302 Rocket 4.2 19:24:57 10° NNW 19:30:16 82° WSW 19:35:30 10° SSE
ATLAS 3B R/B 3.6 19:26:21 10° NNW 19:32:45 34° NE 19:39:09 11° ESE
Cosmos 1726 Rocket 3.8 19:29:04 10° SSW 19:33:25 74° W 19:37:46 10° N
SAR-Lupe-1 4.2 19:34:02 10° N 19:37:38 80° WNW 19:41:11 10° SSW
FALCON 9 DEB 2.8 19:36:48 10° SW 19:39:50 84° NW 19:42:54 10° NE
Cosmos 2360 Rocket 3.0 19:36:20 10° NNW 19:41:49 53° WSW 19:47:14 10° S
Cosmos 2026 Rocket 4.4 19:37:13 10° N 19:42:56 41° E 19:48:41 10° SSE
Cosmos 1455 2.0 19:39:14 10° S 19:42:58 78° E 19:46:42 10° N
COSMOS 2455 4.2 19:39:53 10° SE 19:43:20 16° ESE 19:46:48 10° ENE
Meteor 2-10 Rocket 4.1 19:38:11 10° SSW 19:43:20 66° W 19:48:45 10° N
SME Rocket 3.9 19:40:03 10° N 19:44:27 77° WNW 19:50:49 10° SSW
SL-4 R/B 2.1 19:42:24 10° SW 19:46:31 89° NW 19:51:01 10° NE
Cosmos 1992 Rocket 4.2 19:42:21 10° N 19:47:27 54° ENE 19:52:33 10° SSE
CZ-4 R/B 3.4 19:46:24 10° SSW 19:50:07 31° W 19:53:51 10° NW
BREEZE M DEB (TANK) 3.1 19:48:01 10° SSW 19:50:23 35° SE 19:54:45 10° ENE
USA 186 2.2 19:47:24 11° SSE 19:50:28 43° ENE 19:53:33 10° N
BREEZE-M DEB (TANK) 2.4 19:52:36 10° NW 19:54:59 46° NE 19:57:33 18° ESE
OBJECT-B 1.7 19:53:42 20° ESE 19:55:15 30° ENE 19:58:07 10° NNE
Cosmos 2219 Rocket 2.2 19:50:33 10° NNW 19:56:14 71° ENE 20:01:41 11° SSE
Meteor 2-1 Rocket 4.3 19:50:58 10° S 19:56:44 72° E 20:02:38 10° NNE
Cosmos 1634 Rocket 4.0 19:52:29 10° S 19:58:46 80° E 20:05:01 10° N
Meteor 2-19 Rocket 4.5 19:52:44 10° N 19:58:51 62° E 20:04:55 10° SSE
COSMOS 2428 2.8 19:54:48 10° NNW 20:00:30 63° ENE 20:05:17 15° SSE
ATLAS 5 CENTAUR R/B 2.6 19:58:46 10° N 20:00:30 20° ENE 20:01:00 19° ENE
Cosmos 2344 4.2 19:52:59 10° SW 20:00:36 58° NW 20:08:02 10° NNE
Cosmos 1627 Rocket 4.5 19:55:25 10° N 20:01:32 63° E 20:07:42 10° SSE
Cosmos 407 Rocket 3.7 19:57:28 10° S 20:02:20 46° ESE 20:07:13 10° NNE
SL-8 R/B 4.5 20:01:45 10° NW 20:06:20 41° NNE 20:09:04 21° E
Palapa 6 Rocket 4.3 20:04:45 10° SW 20:07:36 18° S 20:08:30 17° SSE
H-2A R/B 1.2 20:06:21 10° WSW 20:08:18 28° S 20:08:20 28° S
Cosmos 1356 4.3 20:05:19 10° NNE 20:08:18 28° ENE 20:08:40 27° E
Cosmos 1408 3.2 20:06:49 10° NNW 20:10:18 55° W 20:13:47 10° S
Cosmos 2058 Rocket 4.2 20:06:10 10° SSW 20:10:19 44° W 20:14:29 10° N
Cosmos 44 Rocket 4.2 20:09:37 10° SSE 20:13:45 27° ESE 20:17:59 10° NE
Cosmos 1140 Rocket 3.5 20:10:36 10° S 20:15:34 54° ESE 20:20:33 10° NNE
Cosmos 1812 Rocket 3.7 20:14:34 16° SSE 20:17:50 50° E 20:22:09 10° NNE
Helios 1A Rocket 3.9 20:14:06 10° S 20:18:00 45° W 20:21:57 10° NNW
Cosmos 405 Rocket 2.9 20:16:45 10° N 20:20:35 48° E 20:21:35 38° SE
NOSS 0 Rocket 4.2 20:15:25 10° NNW 20:21:29 53° ENE 20:24:40 28° SE
Timation 2 Rocket 4.0 20:15:36 10° S 20:22:10 63° ESE 20:28:30 10° NNE
Hubble Space Telescope 1.2 20:19:50 10° WSW 20:23:45 42° S 20:24:29 38° SE
Cosmos 2180 Rocket 4.5 20:19:10 10° S 20:25:12 59° E 20:31:12 10° NNE
IRIDIUM 103 4.4 20:21:43 20° SSE 20:25:12 55° E 20:30:17 10° NNE
Cosmos 2237 Rocket 2.8 20:24:04 10° N 20:29:16 37° ENE 20:30:48 31° E
Cosmos 1825 2.9 20:29:16 10° NNW 20:32:56 51° W 20:35:33 18° SSW
Cosmos 2227 Rocket 2.1 20:31:25 10° SSW 20:37:04 81° ESE 20:42:44 10° NNE
Cosmos 2082 4.1 20:37:15 37° ESE 20:37:20 38° ESE 20:42:28 10° NE
IRIDIUM 106 4.2 20:40:01 22° S 20:43:26 85° E 20:48:39 10° N
Cosmos 2297 Rocket 2.5 20:38:08 10° SSW 20:43:44 66° WNW 20:49:22 10° NNE
Cosmos 2058 4.0 20:40:04 10° NNW 20:44:02 43° W 20:46:51 17° SSW
Cosmos 1633 3.9 20:41:16 10° N 20:43:19 28° NNE 20:43:19 28° NNE
Resurs 01 Rocket 2.0 20:46:10 45° ENE 20:46:10 45° ENE 20:50:18 10° N
Resurs 1-3 3.5 20:46:38 54° SSE 20:47:36 88° E 20:52:00 10° NNW
Cosmos 1655 Rocket 4.2 20:43:34 10° N 20:49:39 51° E 20:50:54 44° ESE
SJ-6B 4.0 20:48:11 22° SSW 20:49:58 36° W 20:53:27 10° NNW
Cosmos 1809 Rocket 4.3 20:43:52 10° N 20:49:59 72° E 20:52:15 40° SSE
Cosmos 2219 3.6 20:47:29 10° SSW 20:53:00 61° WNW 20:58:35 10° NNE
Cosmos 1190 Rocket 4.4 20:54:49 10° SSW 20:59:59 63° WNW 21:05:10 10° N
Ariane Rocket 3.4 20:58:34 34° SSW 21:00:39 60° WSW 21:05:39 10° NNW
Exosat Rocket 4.2 20:56:12 10° NNW 21:01:30 49° WSW 21:03:31 31° SSW
Cosmos 2333 Rocket 4.2 20:58:36 10° NW 21:02:59 23° W 21:07:20 10° SSW
Meteor 2-14 Rocket 4.3 20:57:54 10° N 21:03:59 77° E 21:05:19 56° SSE
Cosmos-2242 3.3 21:12:34 65° WNW 21:12:34 65° WNW 21:16:41 10° N
SPOT 1/Viking Rocket 4.2 21:14:16 42° NE 21:14:16 42° NE 21:18:24 10° N
Cosmos 676 Rocket 4.1 21:17:21 55° SW 21:18:25 73° WNW 21:23:36 10° NNE
SPOT 3 Rocket 3.5 21:21:18 80° WSW 21:21:19 80° WSW 21:26:32 10° NNW
Cosmos 2151 3.7 21:17:22 10° NNW 21:20:45 51° NW 21:20:45 51° NW
ATLAS 3B R/B 3.6 21:16:47 10° NW 21:23:31 44° WSW 21:26:27 31° SSW
Cosmos 1980 3.9 21:19:57 10° NNW 21:25:33 62° WSW 21:26:04 60° SW
SL-16 R/B 3.2 21:21:06 10° N 21:25:19 35° NE 21:25:19 35° NE
COSMOS 2455 3.2 21:22:42 10° SW 21:28:38 62° WNW 21:34:36 10° NNE
Meteor 2-21 Rocket 4.3 21:24:06 10° N 21:30:10 83° W 21:30:30 79° SSW
Landsat 7 4.4 21:34:05 54° NW 21:34:05 54° NW 21:37:51 10° NNW
ARIANE 5 R/B 4.5 21:41:36 24° N 21:41:36 24° N 21:43:28 10° N
Meteor 2-16 Rocket 4.4 21:34:19 10° N 21:40:18 81° WNW 21:40:18 81° WNW
Cosmos 2266 Rocket 4.3 21:40:34 10° NNW 21:46:47 61° W 21:47:12 60° WSW
Cosmos 2263 Rocket 4.3 22:16:16 17° NNE 22:16:16 17° NNE 22:17:26 10° NNE
Cosmos 2237 Rocket 4.0 22:08:39 10° NW 22:12:39 23° W 22:12:39 23° W
ATLAS 3B CENTAUR R/B 4.4 21:57:09 10° W 22:19:41 70° SSW 22:22:20 63° SSE
Terra 4.4 22:42:44 17° NNW 22:42:44 17° NNW 22:43:50 10° NNW
USA 215 4.5 23:08:56 36° NW 23:08:56 36° NW 23:12:31 10° NW
